Regional Weather Roundup
Issued by NWS Upton, NY

Current Version | Previous Version | Text Only | Print | Product List | Glossary On
Versions: 1 2 3 4 5 6 7 8 9 10 11 12 13 14 15 16 17 18 19 20 21 22 23 24 25 26 27 28 29 30 31 32 33 34 35 36 37 38 39 40 41 42 43 44 45 46 47 48 49 50
000 ASUS41 KOKX 262004 RWROKX REGIONAL WEATHER ROUNDUP NATIONAL WEATHER SERVICE NEW YORK NY 400 PM EDT FRI AUG 26 2016 NOTE: "FAIR" INDICATES FEW OR NO CLOUDS BELOW 12,000 FEET WITH NO SIGNIFICANT WEATHER AND/OR OBSTRUCTIONS TO VISIBILITY. NYZ071-072-176-178-NJZ106-104-262100- NEW YORK CITY METRO AREA CITY SKY/WX TMP DP RH WIND PRES REMARKS Central Park N/A 90 64 43 MISG N/A HX 91 LaGuardia APRT PTSUNNY 89 68 49 NW16 29.97S HX 93 Kennedy INTL MOSUNNY 92 70 48 NW14G22 29.97S HX 97 Newark/Liberty MOSUNNY 94 67 41 NW13G22 29.97S HX 97 Bronx Bot Gard N/A 91 68 46 NW8 30.00R HX 95 Wall St Helipt CLEAR 93 66 40 SE5 29.98S HX 96 Teterboro CLOUDY 90 67 46 NW14G20 29.97S HX 93 $$ NYZ177-179-078>081-262100- LONG ISLAND NEW YORK CITY SKY/WX TMP DP RH WIND PRES REMARKS Farmingdale MOSUNNY 93 69 45 NW12 29.97S HX 98 MacArthur/ISP PTSUNNY 92 69 47 N12 29.96S HX 97 Shirley PTSUNNY 86 73 65 SW6 29.97S HX 93 Riverhead NOT AVBL Westhampton MOSUNNY 81 72 74 S5 29.99R Southampton N/A 81 75 83 SW6 29.93F Bridgehampton N/A 88 77 70 S1 29.95F HX 100 East Hampton CLOUDY 83 74 74 S6 29.95F HX 90 Montauk N/A 84 75 74 VRB5 29.97S HX 92 $$ NYZ052-065-067-262100- HUDSON VALLEY CITY SKY/WX TMP DP RH WIND PRES REMARKS White Plains MOSUNNY 89 69 51 NW12 29.99S HX 93 Newburgh MOSUNNY 88 70 55 NW14 30.02S HX 92 Montgomery SUNNY 89 67 47 W8 30.00S HX 92 Poughkeepsie SUNNY 89 63 41 N9 29.98S HX 90 Albany MOSUNNY 85 65 51 W9 30.00R $$ NJZ001-105-106-008-010-013-015-019>022-104-262100- NEW JERSEY CITY SKY/WX TMP DP RH WIND PRES REMARKS Newark/Liberty MOSUNNY 94 67 41 NW13G22 29.97S HX 97 Teterboro CLOUDY 90 67 46 NW14G20 29.97S HX 93 Caldwell MOSUNNY 90 68 48 NW7 29.99F HX 94 Morristown MOSUNNY 86 68 54 N9G16 30.00S Somerville MOSUNNY 92 65 40 N9 29.98S HX 94 Linden FAIR 91 65 41 NW12G18 29.99F HX 93 Sussex SUNNY 88 67 49 N5 30.03S HX 91 Abdover N/A 87 66 49 VRB7 30.03S Trenton MOSUNNY 92 66 42 NW12 29.99F HX 94 Millville PTSUNNY 92 73 53 W10 30.01S HX 100 Atlantic City MOSUNNY 94 66 39 NW13 29.99S HX 97 Wrightstown MOSUNNY 92 68 45 NW10 29.96F HX 96 Toms River NOT AVBL Belmar MOSUNNY 93 70 46 W12 29.99F HX 99 $$ PAZ047>061-062-071-262100- EASTERN PENNSYLVANIA CITY SKY/WX TMP DP RH WIND PRES REMARKS Philadelphia MOSUNNY 92 64 39 NW15 30.00F HX 93 Allentown MOSUNNY 91 65 41 NW8 30.02F HX 93 Scranton MOSUNNY 85 64 49 VRB5 30.07F $$ CTZ002-004>006-009-010-012-RIZ004-006-007-MAZ004-011-015-262100- SOUTHERN NEW ENGLAND IN CT CITY SKY/WX TMP DP RH WIND PRES REMARKS Bradley INTL MOSUNNY 91 65 41 NW12 29.96R HX 93 Hartford MOSUNNY 93 67 42 N12 29.94S HX 96 Danbury MOSUNNY 86 67 52 NW10 30.01R Wtrbury/Oxford MOSUNNY 84 64 51 N15 30.04R Bridgeport SUNNY 92 68 45 NW13 29.96R HX 96 Meriden SUNNY 92 65 40 NW13G21 29.96R HX 94 New Haven PTSUNNY 86 72 62 SW5 29.96S HX 92 Chester DRIZZLE 84 75 74 W7 29.98R HX 92 Groton MOSUNNY 85 73 67 SW10 29.95S HX 91 Wilimantic SUNNY 90 70 51 NW13 29.96S HX 95 IN RI CITY SKY/WX TMP DP RH WIND PRES REMARKS Providence PTSUNNY 91 70 49 W12 29.93S HX 96 Block Island SUNNY 80 73 79 SW16 29.97S Westerly SUNNY 83 71 67 W9 29.96S IN MA CITY SKY/WX TMP DP RH WIND PRES REMARKS Boston MOSUNNY 90 70 51 W14 29.92S HX 95 Worcester SUNNY 84 67 56 NW9 30.00R Westfield SUNNY 91 64 40 N12G20 29.96S HX 92 Provincetown LGT RAIN 76 74 93 S8 29.94S Nantucket MOSUNNY 77 72 84 SW13 29.97S $$ ANZ330-335-338-340-345-350-353-355-262100- COASTAL MARINE OBSERVATIONS STATION/POSITION TIME SKY/WX TEMP WIND PRES VSBY WAVE AIR SEA DIR/SP/G HT/PER (UTC) (F) (DEG/KT/KT) (MB) (MI) (FT/S) NY HARB ENTRANCE 1850 80 76 220/ 8/ 8 1014.6 3/ 6 20S FIRE ISLAND 1850 76 75 210/ 8/ 10 1014.6 3/ 6 GREAT SOUTH BAY 1900 79 80 230/ 12/ 14 N/A 23 SSW MONTAUK P 1850 76 74 240/ 12/ 14 1015.1 4/ 6 15 E BARNEGAT LI 1900 76 N/A 3/ 5 HUDSON CANYON 1850 79 78 1015.4 4/ 6 KINGS POINT 1900 84 77 1014.8 EXECUTION ROCKS 1900 87 310/ 10/ 14 N/A CENTRAL LI SOUND NOT AVBL EASTERN LI SOUND 1900 77 71 250/ 6/ 6 N/A ROBBINS REEF 1900 88 340/ 11/ 16 1014.4 $$ >>>>>>>>>>>>>>>>>>>>>>>>>>>> KEY <<<<<<<<<<<<<<<<<<<<<<<<<<< > < > SKY/WX - Sky Condition/Present Weather < > TMP - Temperature in Fahrenheit < > DP - Dew Point in Fahrenheit < > RH - Relative Humidity in Percent < > WIND - Direction (from) and Speed in MPH < > PRES - Mean Sea Level Pressure (inches of Hg) < > WCI - Wind Chill Index < > VSB - VISIBILITY IN MILES < > HX - HEAT INDEX < > TC - TEMPERATURE IN CELSIUS < > VRB - VARIABLE WIND DIRECTION < > < >>>>>>>>>>>>>>>>>>>>>>>>>>>> KEY <<<<<<<<<<<<<<<<<<<<<<<<<<<

USA.gov is the U.S. government's official web portal to all federal, state and local government web resources and services.